Temp
14 14 14 14 14 13 13 12 12 12 12 12 12 11 11 11 11 11 10 11 11 11 11 11 11 11 11 11 11 11 11 11 11 10 10 10 10 10 10 9 9 9 9 9 9 9 8 8 8 8 8 8 8 8 8 8 8 8 8 8 8 8 8 6 5 5 6 5 5 5 5 5 5 4 5 6 7 6 4 3 3 3 3 3 3
14 14 14 14 13 13 13 12 12 12 12 12 12 11 11 11 11 10 10 10 11 11 11 11 11 11 11 11 11 11 11 11 10 10 10 10 10 10 9 9 9 9 9 9 8 8 8 8 8 8 8 8 8 8 8 8 8 8 8 8 7 7 7 6 5 5 5 5 5 5 5 5 4 4 4 5 6 6 4 3 3 3 3 3 3
14 14 14 14 13 13 12 12 12 12 12 12 11 11 11 11 11 10 10 10 10 11 11 11 11 10 10 10 10 10 10 10 10 10 10 9 9 9 9 9 9 9 8 8 8 8 8 8 8 8 8 8 8 7 8 8 7 8 7 7 7 6 6 5 4 4 4 5 5 4 5 4 4 4 4 4 5 6 5 4 3 3 3 2 2
14 14 14 13 12 12 12 12 12 12 12 12 11 11 11 11 11 10 10 10 10 10 11 10 10 10 10 10 10 10 10 10 9 9 9 9 9 9 9 9 9 8 8 8 8 8 7 7 7 8 7 8 7 7 7 7 7 7 6 6 6 6 5 4 4 4 4 4 4 4 4 4 4 4 4 4 5 5 5 4 3 3 3 2 2
14 14 13 13 12 12 12 12 12 12 12 11 11 11 11 11 11 10 9 9 10 10 10 10 10 10 9 9 10 9 10 9 9 9 9 9 8 8 8 8 8 8 8 8 8 7 7 7 7 7 8 7 7 7 7 7 7 7 6 5 5 5 5 4 4 4 4 4 4 4 4 4 4 4 4 4 4 4 6 5 3 3 3 2 2
14 13 13 12 12 12 12 12 12 12 12 11 11 11 11 11 10 9 9 9 10 10 10 10 9 9 9 9 9 9 9 9 9 9 8 8 8 8 8 8 8 7 7 7 7 7 7 7 7 8 8 7 7 7 7 7 7 6 6 6 6 5 5 5 4 4 4 4 4 4 4 4 4 4 4 4 4 4 5 5 3 3 2 2 2
14 13 13 12 12 12 12 12 12 12 11 11 11 11 11 10 10 9 9 9 9 10 10 10 9 9 9 9 9 9 9 9 8 8 8 8 8 8 8 8 7 7 7 7 7 7 7 7 8 8 8 7 7 7 7 7 6 6 6 6 6 6 5 5 4 4 4 4 4 4 4 4 4 4 4 4 4 4 3 3 3 3 2 2 2
13 13 13 12 12 12 12 12 12 11 11 11 11 11 10 10 9 8 8 8 9 9 10 9 9 9 8 8 8 9 9 8 8 8 7 7 7 7 7 7 7 7 7 7 7 7 7 7 8 8 7 7 7 7 7 7 6 6 6 6 6 6 5 4 4 4 4 4 4 4 4 4 3 3 4 4 4 4 3 2 2 2 2 2 2
12 13 12 12 12 12 12 12 11 11 11 11 11 10 10 9 9 8 8 8 8 9 9 9 9 9 8 8 8 8 8 8 7 7 7 7 7 7 7 7 7 7 7 7 7 7 7 8 8 7 7 7 7 7 7 6 6 6 6 6 6 6 5 4 4 4 4 4 4 4 3 3 3 3 3 3 3 3 2 2 2 2 2 2 2
13 12 12 12 12 12 12 11 11 11 11 11 10 9 9 8 8 7 8 8 8 8 8 8 8 8 8 8 8 8 8 7 7 7 7 7 7 7 7 7 7 7 7 7 7 7 7 7 7 7 7 7 7 7 6 6 6 6 6 6 5 5 5 5 4 3 3 3 3 3 3 3 2 2 2 3 4 3 2 2 2 2 2 2 3
12 12 12 12 11 11 11 11 11 11 10 10 10 9 8 8 7 7 7 8 8 8 8 8 8 8 8 8 8 8 8 8 7 7 7 7 7 6 6 6 6 6 6 7 7 7 7 7 7 7 7 7 7 6 6 6 6 6 6 5 5 5 5 5 4 4 3 3 3 3 2 2 2 2 2 3 4 3 2 2 2 2 2 2 3
12 12 12 12 11 11 11 11 11 10 10 9 9 8 8 7 7 7 8 8 8 8 8 8 8 8 7 7 7 8 8 7 7 7 7 7 7 6 6 6 6 6 6 6 6 7 7 7 7 7 7 7 6 6 6 6 6 6 5 5 5 5 5 4 4 4 3 3 2 2 2 2 1 2 2 3 3 4 3 2 1 1 2 2 2
12 12 12 12 12 12 11 11 10 10 10 9 8 8 7 7 7 7 8 8 8 8 7 7 7 7 7 7 7 7 7 7 7 7 6 7 7 6 6 6 6 6 6 6 6 6 6 6 6 6 6 6 6 5 5 5 5 5 5 5 5 5 5 4 4 4 4 3 2 2 2 1 1 2 2 3 3 3 3 2 1 1 1 2 2
12 12 12 12 12 11 11 10 10 10 9 8 8 7 7 7 7 7 8 8 8 7 7 7 7 6 6 6 6 7 7 7 7 7 6 6 6 6 6 6 6 6 6 6 6 7 6 6 6 6 6 6 6 5 5 5 5 5 5 4 4 4 4 4 4 4 4 3 3 2 2 2 2 2 2 2 3 3 2 1 2 1 1 2 2
11 11 11 12 12 11 11 10 10 9 9 8 8 7 7 7 7 7 7 7 7 7 7 6 6 6 6 5 5 6 7 7 7 6 6 6 6 6 6 6 6 6 6 6 6 6 6 6 6 6 6 6 5 6 6 5 5 5 5 4 4 4 4 4 4 4 4 3 3 3 3 2 2 2 2 2 3 3 2 1 2 1 2 2 2
11 11 11 11 11 11 11 10 9 9 9 8 7 7 7 7 7 7 7 7 7 7 6 6 6 5 5 5 5 5 6 6 6 6 6 6 6 6 6 6 6 6 6 6 6 6 6 6 6 6 6 6 5 6 6 6 5 5 5 4 4 4 4 4 4 4 4 3 3 3 3 3 3 3 2 2 3 3 2 2 2 2 2 3 2
11 11 11 11 11 11 10 10 9 9 9 8 7 7 7 7 7 7 7 7 7 6 6 5 5 5 5 5 5 5 6 6 6 6 6 6 6 6 5 5 6 6 6 6 6 6 6 6 6 6 6 5 6 6 5 6 5 5 5 4 4 4 4 4 4 4 4 4 4 3 3 3 3 3 3 2 2 2 2 1 1 1 2 2 2
11 11 11 12 12 11 11 10 10 9 9 8 8 8 7 7 7 7 8 8 7 6 5 5 5 5 5 5 5 5 6 6 6 6 6 6 6 5 5 5 6 6 6 6 6 6 6 6 6 6 6 5 5 5 5 6 5 5 5 5 4 4 5 5 4 4 4 4 4 4 3 3 3 2 2 2 2 2 1 1 1 1 2 2 2
11 11 11 12 11 11 10 10 10 9 9 9 8 8 8 7 7 7 8 7 7 6 6 6 6 6 6 6 5 5 5 6 6 6 6 6 6 5 4 4 5 5 5 6 6 6 6 6 6 6 6 6 5 5 6 6 5 5 5 4 4 4 4 4 4 4 4 4 3 3 3 3 2 2 2 2 2 2 2 1 1 1 1 2 2
11 11 11 11 10 10 9 9 9 9 8 8 8 8 8 7 7 7 7 7 6 6 6 5 6 6 6 6 5 5 5 5 5 6 5 6 6 5 4 4 5 5 5 5 5 6 6 6 6 6 6 5 5 5 5 5 5 5 5 4 4 4 4 4 4 4 3 3 3 3 3 3 2 2 2 2 2 2 2 1 1 1 1 1 2
10 10 10 10 10 9 9 9 8 8 8 8 7 7 7 7 7 7 6 6 5 5 5 5 5 5 5 5 5 4 4 5 5 5 5 5 6 5 4 4 4 5 5 4 4 5 5 5 5 6 6 5 5 5 5 5 5 5 4 4 4 4 4 4 4 3 3 3 3 3 3 3 2 2 2 2 2 2 2 2 2 1 1 1 1
10 10 10 9 9 9 9 9 8 8 7 7 6 6 6 6 6 6 6 5 5 5 5 5 4 4 4 4 4 4 4 4 4 5 5 5 5 5 5 4 4 4 4 4 4 4 4 4 5 6 5 5 5 5 5 5 5 4 4 4 4 4 4 4 3 3 3 3 3 3 3 3 2 2 2 2 2 2 2 2 2 2 1 1 1
10 10 9 9 9 10 9 9 8 7 6 6 6 6 6 6 6 6 6 5 5 5 4 4 3 3 3 3 3 3 3 4 4 4 5 5 5 5 5 5 5 4 3 3 4 4 4 5 5 5 5 5 5 5 5 5 5 4 4 4 4 4 4 3 3 3 3 3 3 3 3 2 2 2 2 2 2 2 2 2 2 2 1 1 1
10 9 9 9 9 9 9 8 8 7 6 5 5 5 6 6 5 5 5 5 5 4 4 3 2 2 2 2 2 3 3 4 4 4 4 5 5 5 5 5 5 5 4 3 3 3 4 5 5 5 5 5 5 5 5 5 5 4 4 4 4 4 3 3 3 3 3 3 3 3 3 2 2 2 2 1 1 1 2 2 2 2 2 2 2
10 9 9 9 9 9 8 8 8 7 6 5 5 5 6 6 5 5 5 5 5 4 3 3 2 2 2 2 2 3 3 3 3 4 4 4 4 5 5 5 5 5 5 3 3 4 4 5 5 5 5 5 5 5 5 5 5 4 4 4 4 3 3 3 3 3 3 3 3 2 2 2 2 2 1 1 2 2 2 2 2 2 2 2 2
10 10 9 9 9 9 8 8 7 7 6 5 5 5 5 5 5 5 5 5 4 4 3 3 2 2 2 3 3 3 3 3 3 4 4 4 4 4 5 5 5 5 5 4 4 4 5 5 5 5 5 5 5 5 5 5 5 4 4 4 3 3 3 3 3 2 2 2 2 2 2 2 2 2 2 2 2 2 2 2 2 2 2 2 2
10 10 9 9 9 8 8 8 7 6 5 5 5 5 5 5 5 5 5 4 4 3 3 3 3 3 3 3 3 3 3 3 3 4 4 4 4 4 5 5 5 5 5 5 5 5 5 5 5 5 5 5 5 5 5 5 4 4 4 3 3 3 3 3 3 2 2 2 2 2 2 2 2 2 2 2 2 2 2 2 2 2 2 2 3
10 9 9 9 9 8 8 7 7 6 5 5 5 4 4 5 5 5 5 5 4 4 3 3 3 3 4 4 3 3 3 3 3 4 4 4 4 5 5 5 5 5 5 4 4 4 5 5 5 5 5 5 5 5 4 4 4 3 3 3 3 3 3 3 3 2 2 2 2 2 2 2 2 2 2 2 2 2 2 2 2 2 2 2 3
9 9 9 9 8 8 7 7 7 6 6 5 4 4 4 4 4 5 5 5 5 5 4 4 4 4 4 4 4 4 4 3 4 4 5 5 5 5 5 5 5 4 4 3 3 3 4 4 4 4 4 4 4 4 4 4 4 3 3 3 3 3 3 3 3 3 2 2 2 2 2 2 2 2 2 2 2 2 2 2 2 2 2 2 3
9 9 9 8 8 8 7 7 7 6 6 5 4 4 4 4 4 4 4 5 5 5 5 4 4 4 4 4 4 4 4 4 5 6 6 5 5 5 5 5 4 4 4 4 3 3 3 3 3 3 4 4 4 4 4 4 4 4 4 3 3 3 3 3 3 3 2 2 2 2 2 2 2 2 2 2 2 2 2 2 2 2 2 3 3
9 9 8 8 8 8 8 7 7 6 6 5 4 4 5 5 4 4 4 5 5 5 5 5 5 4 4 3 4 5 5 5 6 6 5 5 5 4 4 5 4 4 4 4 4 3 3 3 3 4 4 4 4 4 4 4 4 4 4 4 3 3 3 3 3 3 2 2 2 2 2 2 2 2 2 2 2 2 2 2 2 2 2 3 2
9 9 9 8 8 8 8 7 7 7 6 5 5 5 5 5 4 4 5 5 5 4 5 5 5 5 4 4 4 5 5 5 5 5 5 4 4 4 4 4 4 4 4 4 3 3 3 3 3 4 4 4 4 4 4 4 4 4 4 4 3 3 3 3 3 3 2 3 2 2 2 2 2 2 2 2 2 2 2 2 2 2 2 2 2
8 9 9 8 8 8 8 7 7 7 6 6 5 5 5 5 4 4 5 5 4 4 4 4 4 4 4 3 4 4 5 5 5 4 4 4 4 4 4 4 4 4 4 4 3 3 3 3 4 4 4 4 4 4 4 4 4 4 4 4 4 4 3 3 3 3 3 3 3 2 2 2 2 2 2 2 2 2 2 2 3 3 3 2 2
8 8 9 8 8 8 8 8 7 7 6 6 5 5 5 4 4 4 5 5 4 4 4 4 4 3 3 3 3 4 4 4 4 4 4 4 4 4 4 4 3 3 3 3 3 3 3 3 4 4 4 4 4 4 4 4 4 4 4 4 4 4 3 3 3 3 3 3 3 3 3 3 3 2 2 2 2 2 2 2 2 3 3 2 2
8 8 8 8 8 8 8 8 7 7 6 6 5 5 5 4 4 4 5 5 4 4 3 3 3 3 3 3 3 3 3 3 3 3 4 4 4 4 3 3 3 3 3 4 4 3 3 3 4 4 4 4 4 4 4 4 4 4 4 4 4 4 4 3 3 3 3 3 3 3 3 3 3 3 3 3 2 2 2 2 2 3 2 2 2
8 8 8 7 8 8 8 8 7 7 7 6 5 5 4 4 4 4 5 5 4 3 3 3 3 3 2 3 3 2 2 2 3 3 3 3 3 3 3 3 3 3 3 3 3 3 3 3 4 4 4 4 4 4 4 4 4 4 4 4 4 4 4 4 3 3 3 3 3 3 3 3 3 3 3 3 3 3 3 3 3 3 2 2 2
7 7 7 7 7 7 7 7 7 7 7 6 5 5 4 4 4 4 4 4 4 3 2 2 2 3 2 2 2 2 2 2 2 2 2 3 3 3 3 3 3 2 2 3 3 3 3 3 4 4 4 4 4 4 4 4 4 4 3 3 3 3 3 3 3 3 3 3 3 3 3 3 3 3 3 3 3 3 3 3 3 3 3 3 3
8 7 7 7 7 7 7 6 6 6 6 6 5 4 4 4 4 4 4 3 3 3 2 2 2 3 3 2 2 2 2 2 2 2 2 2 3 3 3 3 2 2 2 3 3 3 3 3 4 4 4 4 4 4 4 4 4 4 4 3 3 3 3 3 3 3 3 3 3 3 3 3 3 3 3 3 3 3 3 3 3 3 3 3 3
8 7 7 7 7 7 6 6 6 6 5 5 4 4 4 4 4 4 3 3 3 4 3 2 2 2 2 2 2 2 2 2 2 2 2 3 3 3 3 3 3 3 3 3 3 3 3 3 4 3 3 3 3 3 3 3 3 3 3 3 3 3 3 3 3 3 3 3 4 4 4 4 4 3 3 3 3 3 3 3 3 3 3 3 3
7 7 7 6 6 6 6 6 6 6 5 5 4 4 4 4 4 4 3 3 3 4 3 3 2 2 2 2 2 3 2 2 3 3 3 3 3 3 3 3 3 3 3 3 3 3 3 3 3 3 3 3 3 3 3 3 3 3 3 3 3 3 3 3 3 3 4 4 4 4 4 4 4 3 3 3 3 3 3 3 3 3 3 3 3
6 6 6 6 6 6 6 6 6 5 5 4 4 4 4 4 3 3 3 3 3 4 4 4 3 3 3 3 3 3 3 3 3 3 3 3 3 3 3 3 3 3 4 4 3 3 3 3 3 3 3 3 3 3 3 3 3 3 3 3 3 3 3 3 3 4 4 4 4 4 4 4 4 4 4 3 3 4 4 3 3 3 3 3 3
6 6 6 6 5 5 5 5 5 5 4 4 4 3 4 4 4 3 3 3 3 3 4 4 4 3 3 3 3 3 3 3 3 3 3 3 3 3 3 3 3 3 4 4 4 3 3 3 3 3 3 3 3 3 3 3 3 3 3 3 3 3 3 4 4 4 4 4 4 4 4 4 4 4 4 4 4 4 4 3 3 3 3 3 3
6 6 5 5 5 5 5 5 5 4 4 4 3 4 4 4 4 3 3 3 3 3 3 3 3 3 3 3 3 3 3 3 3 3 3 3 3 3 3 3 3 4 4 4 4 3 3 3 3 3 3 3 3 3 3 3 3 3 3 3 3 4 4 4 4 4 4 4 4 4 4 4 4 4 4 4 4 4 4 3 3 3 3 3 2
5 5 5 5 5 5 5 4 4 4 4 3 3 4 4 4 3 3 3 3 3 3 3 3 3 3 3 3 3 3 3 3 3 3 3 3 3 3 3 4 4 4 4 4 4 3 3 3 3 3 3 3 3 3 3 3 3 3 3 3 4 4 4 4 4 4 4 4 4 4 4 4 4 4 4 3 3 3 3 3 3 2 2 2 2
5 4 4 4 4 4 4 4 3 3 3 3 3 3 3 3 3 3 3 3 3 3 3 3 2 3 3 3 3 3 3 3 3 3 3 3 3 3 3 4 4 4 4 3 3 3 3 3 3 3 3 3 3 3 3 3 3 3 3 4 4 4 4 4 4 4 4 4 4 4 4 4 4 4 3 3 3 3 2 2 2 2 2 1 1
4 4 4 4 4 4 3 3 3 3 3 3 3 3 3 3 3 3 3 3 3 3 2 2 2 3 3 3 3 3 3 3 3 3 3 3 3 3 4 4 4 3 3 3 3 3 3 3 3 3 3 3 3 3 3 3 4 4 4 4 4 4 4 4 4 4 4 4 4 4 4 4 3 3 3 3 2 2 2 2 1 1 1 1 0
3 3 3 3 3 3 3 3 3 3 3 3 3 3 3 3 3 3 3 2 2 2 2 2 3 3 3 3 3 3 3 3 3 3 3 3 3 3 3 3 3 3 3 3 3 3 3 4 4 4 3 4 4 4 4 4 4 4 4 4 4 4 4 4 4 4 4 4 4 3 3 3 3 2 2 2 1 1 1 1 0 0 -0 -0 -1
3 3 3 3 3 3 3 3 3 3 2 2 2 3 3 3 3 3 3 3 3 3 3 3 3 3 3 3 3 3 3 3 3 3 3 3 3 3 3 4 4 3 3 3 3 3 4 4 4 4 4 4 4 4 4 4 4 4 4 4 4 4 4 4 4 4 4 3 3 3 3 2 2 2 1 1 1 1 0 -0 -0 -1 -1 -1 -1
3 3 3 3 3 3 3 2 2 2 2 2 2 3 3 3 3 3 3 3 3 3 3 3 3 3 3 3 3 3 3 3 3 3 3 3 3 3 4 4 3 3 3 3 3 4 4 4 4 4 4 4 4 4 4 4 4 4 4 4 4 4 4 4 4 3 3 3 3 2 2 2 1 1 1 0 -0 -0 -1 -1 -1 -1 -2 -2 -2
3 3 3 2 2 2 2 2 2 2 2 2 3 3 3 3 3 3 3 3 3 3 3 3 3 3 3 3 3 3 3 3 3 3 3 3 3 3 3 3 3 3 3 3 4 4 4 4 4 4 4 4 4 4 4 4 4 4 4 4 4 4 3 3 3 3 2 2 2 1 1 1 0 0 -0 -1 -1 -1 -2 -2 -2 -2 -2 -3 -3
2 2 2 2 2 2 2 2 2 2 2 3 3 3 3 3 3 3 3 3 3 3 3 3 3 3 3 3 3 3 3 3 3 3 3 3 3 3 3 3 3 3 3 4 4 4 4 4 4 4 4 4 4 4 4 4 4 4 4 3 3 3 2 2 2 2 2 1 1 0 -0 -0 -1 -1 -1 -1 -2 -2 -2 -3 -3 -3 -4 -4 -5
Height
1515 1517 1519 1522 1524 1526 1529 1531 1533 1536 1538 1541 1542 1543 1545 1545 1546 1546 1546 1547 1548 1550 1551 1551 1553 1554 1555 1556 1556 1558 1559 1559 1561 1562 1562 1563 1563 1564 1565 1566 1567 1567 1567 1567 1567 1567 1567 1567 1566 1565 1565 1564 1564 1564 1563 1562 1562 1562 1561 1561 1560 1559 1557 1556 1556 1555 1552 1550 1547 1545 1542 1538 1534 1532 1528 1524 1519 1515 1511 1508 1504 1500 1497 1495 1492
1514 1516 1517 1520 1523 1525 1527 1529 1532 1534 1537 1539 1541 1543 1544 1544 1545 1546 1546 1547 1548 1549 1550 1551 1552 1554 1554 1555 1556 1558 1559 1560 1561 1562 1563 1563 1564 1565 1566 1567 1567 1567 1568 1568 1568 1567 1567 1567 1567 1566 1565 1565 1565 1565 1564 1563 1563 1563 1562 1561 1560 1559 1558 1556 1555 1554 1552 1549 1547 1544 1541 1538 1534 1532 1529 1524 1519 1514 1511 1509 1504 1500 1497 1495 1491
1512 1514 1516 1519 1522 1524 1526 1528 1530 1533 1536 1538 1540 1542 1543 1543 1545 1546 1546 1547 1548 1549 1550 1551 1552 1553 1554 1555 1556 1557 1559 1560 1561 1562 1563 1564 1565 1565 1566 1567 1568 1568 1568 1568 1568 1568 1568 1568 1567 1567 1566 1566 1565 1565 1564 1564 1564 1563 1562 1561 1560 1559 1557 1555 1554 1553 1551 1549 1546 1544 1541 1538 1535 1532 1529 1524 1519 1515 1511 1508 1504 1500 1497 1494 1491
1511 1513 1515 1518 1520 1523 1525 1527 1529 1532 1534 1536 1539 1541 1542 1543 1545 1546 1546 1547 1547 1549 1550 1551 1552 1553 1554 1555 1556 1557 1559 1559 1561 1562 1563 1564 1565 1566 1567 1567 1568 1568 1569 1569 1569 1569 1568 1568 1568 1567 1567 1566 1566 1566 1565 1565 1564 1563 1562 1562 1561 1559 1557 1555 1554 1553 1551 1549 1547 1544 1541 1538 1535 1532 1529 1524 1520 1516 1512 1508 1504 1501 1497 1494 1490
1510 1512 1514 1517 1519 1522 1524 1526 1529 1531 1533 1535 1538 1540 1542 1543 1544 1545 1546 1546 1547 1548 1549 1550 1552 1552 1554 1555 1556 1557 1559 1560 1561 1562 1563 1565 1566 1566 1567 1568 1568 1568 1569 1569 1569 1569 1569 1569 1568 1568 1567 1567 1567 1567 1566 1565 1565 1564 1563 1562 1561 1559 1557 1556 1554 1553 1551 1549 1547 1545 1542 1539 1536 1532 1528 1524 1519 1516 1512 1508 1504 1501 1498 1493 1490
1509 1511 1514 1516 1519 1521 1523 1526 1528 1530 1532 1534 1537 1539 1541 1542 1544 1544 1545 1545 1547 1548 1549 1550 1551 1552 1553 1555 1556 1557 1558 1560 1561 1563 1564 1565 1566 1567 1567 1568 1568 1569 1569 1569 1569 1569 1569 1569 1569 1568 1568 1567 1567 1567 1567 1566 1565 1564 1563 1562 1561 1559 1557 1556 1554 1552 1551 1550 1548 1545 1542 1539 1536 1532 1528 1524 1519 1515 1511 1506 1503 1501 1498 1493 1489
1508 1510 1513 1515 1518 1521 1523 1525 1527 1529 1531 1534 1536 1538 1540 1542 1542 1543 1544 1545 1546 1547 1548 1549 1550 1551 1553 1554 1556 1557 1558 1560 1561 1563 1564 1565 1566 1567 1567 1568 1569 1569 1569 1569 1569 1569 1569 1569 1569 1569 1568 1568 1568 1568 1567 1566 1565 1564 1563 1562 1560 1559 1557 1555 1554 1552 1551 1550 1548 1546 1543 1540 1536 1532 1528 1525 1521 1516 1511 1506 1502 1500 1498 1494 1490
1507 1509 1512 1515 1518 1520 1522 1525 1526 1528 1531 1533 1535 1537 1539 1541 1541 1542 1543 1544 1545 1547 1548 1549 1550 1551 1552 1554 1555 1557 1558 1560 1562 1563 1565 1565 1566 1567 1568 1569 1569 1569 1569 1569 1569 1570 1570 1570 1569 1569 1569 1569 1568 1568 1567 1566 1565 1565 1563 1562 1560 1558 1557 1555 1554 1552 1551 1550 1548 1546 1543 1540 1536 1532 1528 1524 1519 1516 1512 1508 1504 1501 1498 1494 1491
1506 1509 1511 1514 1517 1519 1521 1524 1526 1528 1530 1532 1535 1537 1538 1539 1540 1541 1542 1543 1545 1546 1547 1548 1549 1550 1552 1553 1555 1557 1558 1560 1562 1563 1564 1566 1567 1568 1568 1569 1569 1569 1569 1569 1570 1570 1570 1570 1570 1569 1569 1569 1569 1568 1567 1566 1565 1565 1563 1562 1560 1558 1557 1555 1554 1553 1551 1550 1548 1546 1543 1540 1536 1532 1528 1524 1520 1516 1513 1510 1507 1503 1499 1496 1492
1505 1508 1511 1513 1516 1518 1520 1523 1525 1527 1529 1532 1534 1535 1537 1538 1539 1540 1542 1543 1544 1545 1546 1548 1549 1550 1551 1553 1554 1556 1558 1559 1561 1562 1564 1565 1567 1568 1568 1569 1569 1569 1570 1570 1570 1570 1570 1570 1570 1570 1569 1569 1569 1568 1567 1566 1565 1564 1563 1562 1560 1559 1556 1555 1554 1552 1551 1550 1548 1546 1543 1540 1537 1533 1529 1525 1522 1517 1514 1510 1507 1504 1501 1497 1493
1504 1507 1509 1512 1515 1517 1519 1522 1524 1526 1528 1530 1532 1534 1535 1537 1538 1539 1540 1542 1543 1544 1546 1547 1548 1549 1551 1552 1554 1555 1557 1559 1560 1562 1563 1564 1566 1567 1568 1568 1569 1569 1570 1570 1570 1570 1570 1570 1570 1570 1570 1569 1569 1568 1568 1567 1566 1565 1564 1562 1560 1558 1557 1555 1554 1552 1551 1550 1549 1546 1544 1541 1538 1535 1531 1527 1522 1518 1515 1512 1508 1504 1501 1498 1493
1503 1506 1508 1511 1513 1516 1518 1520 1522 1525 1527 1529 1531 1533 1534 1536 1537 1538 1539 1541 1542 1543 1545 1546 1547 1548 1550 1551 1553 1555 1556 1558 1560 1561 1563 1564 1565 1567 1568 1568 1569 1569 1569 1570 1570 1570 1570 1570 1570 1570 1570 1570 1569 1569 1568 1567 1566 1565 1564 1562 1561 1559 1557 1556 1554 1552 1551 1550 1549 1547 1544 1541 1538 1535 1531 1527 1523 1519 1516 1513 1509 1506 1503 1500 1496
1502 1505 1507 1510 1512 1514 1517 1519 1522 1524 1526 1528 1530 1532 1533 1535 1536 1537 1539 1540 1541 1543 1544 1545 1547 1548 1550 1551 1553 1554 1555 1557 1559 1560 1562 1563 1564 1566 1567 1568 1568 1569 1569 1569 1570 1570 1570 1571 1571 1571 1571 1570 1570 1569 1568 1568 1566 1565 1564 1562 1561 1559 1558 1556 1554 1553 1551 1549 1548 1547 1544 1541 1539 1536 1532 1528 1524 1520 1516 1513 1511 1507 1504 1501 1498
1502 1504 1506 1509 1511 1513 1516 1518 1521 1523 1525 1527 1529 1531 1532 1534 1535 1536 1537 1539 1540 1542 1543 1545 1547 1548 1550 1552 1553 1554 1555 1556 1558 1559 1560 1562 1563 1564 1566 1567 1568 1569 1569 1569 1569 1570 1570 1571 1571 1571 1571 1571 1570 1569 1569 1568 1567 1566 1564 1563 1561 1560 1558 1556 1555 1553 1551 1550 1548 1546 1544 1541 1539 1536 1533 1529 1526 1522 1517 1514 1512 1508 1506 1503 1500
1501 1503 1505 1508 1510 1513 1515 1517 1520 1522 1524 1526 1528 1530 1531 1532 1533 1535 1536 1538 1539 1541 1543 1545 1546 1548 1550 1552 1553 1554 1555 1556 1557 1558 1560 1561 1562 1563 1565 1566 1567 1568 1569 1569 1569 1569 1570 1571 1571 1571 1571 1571 1570 1570 1569 1568 1567 1566 1565 1564 1563 1561 1559 1558 1556 1554 1552 1550 1548 1546 1544 1542 1539 1536 1533 1530 1527 1523 1520 1518 1515 1510 1508 1505 1502
1499 1502 1505 1507 1509 1512 1514 1516 1519 1521 1523 1524 1526 1528 1529 1530 1532 1533 1535 1537 1538 1540 1542 1544 1546 1548 1550 1552 1554 1555 1555 1556 1557 1558 1559 1560 1561 1563 1564 1566 1567 1568 1568 1569 1569 1569 1570 1571 1571 1571 1571 1571 1570 1570 1569 1569 1567 1567 1566 1565 1564 1562 1561 1559 1557 1555 1552 1550 1549 1547 1544 1542 1540 1537 1533 1531 1528 1524 1521 1520 1516 1512 1509 1506 1502
1498 1501 1504 1506 1508 1511 1513 1515 1517 1519 1521 1522 1523 1525 1527 1528 1530 1531 1533 1535 1536 1539 1540 1542 1544 1546 1548 1550 1553 1555 1556 1556 1557 1558 1559 1559 1561 1562 1564 1565 1566 1567 1568 1568 1569 1569 1570 1570 1571 1571 1571 1571 1570 1570 1569 1569 1568 1567 1566 1565 1564 1563 1561 1559 1557 1555 1553 1551 1549 1547 1545 1543 1540 1537 1534 1532 1528 1524 1522 1520 1516 1513 1510 1507 1503
1495 1499 1501 1504 1507 1509 1512 1514 1516 1517 1519 1520 1521 1522 1524 1525 1527 1529 1531 1533 1535 1537 1539 1540 1543 1544 1546 1549 1552 1555 1556 1556 1556 1557 1558 1559 1560 1561 1563 1565 1565 1567 1567 1568 1569 1569 1570 1570 1570 1570 1570 1570 1570 1569 1569 1569 1568 1566 1566 1565 1564 1562 1561 1559 1557 1555 1553 1551 1549 1547 1545 1542 1540 1537 1535 1532 1529 1525 1523 1520 1517 1514 1512 1509 1505
1493 1496 1499 1502 1504 1507 1509 1512 1514 1515 1516 1517 1519 1520 1521 1523 1525 1527 1529 1531 1533 1535 1537 1539 1541 1543 1546 1548 1551 1554 1555 1555 1555 1556 1557 1558 1559 1560 1563 1564 1565 1566 1567 1568 1568 1569 1569 1570 1570 1570 1570 1570 1569 1569 1569 1568 1567 1566 1565 1564 1563 1562 1560 1558 1557 1555 1553 1551 1549 1547 1545 1543 1541 1538 1536 1533 1530 1527 1524 1521 1518 1516 1513 1510 1507
1491 1495 1498 1501 1503 1505 1508 1510 1512 1513 1515 1516 1517 1518 1519 1521 1523 1525 1527 1530 1532 1534 1537 1539 1541 1543 1545 1546 1549 1552 1553 1554 1554 1555 1556 1557 1558 1559 1561 1563 1564 1565 1566 1567 1568 1569 1569 1569 1569 1569 1569 1569 1569 1568 1568 1567 1566 1565 1564 1563 1562 1561 1559 1558 1556 1554 1552 1550 1549 1548 1546 1544 1542 1539 1537 1534 1531 1528 1525 1522 1519 1517 1514 1512 1509
1491 1495 1500 1502 1503 1505 1507 1509 1510 1511 1513 1514 1516 1517 1519 1520 1522 1524 1527 1529 1531 1533 1536 1537 1539 1541 1543 1545 1547 1550 1552 1553 1553 1554 1555 1557 1557 1558 1559 1562 1563 1565 1566 1567 1568 1569 1569 1569 1569 1569 1568 1568 1568 1568 1567 1566 1566 1564 1563 1563 1561 1560 1559 1557 1555 1553 1552 1552 1550 1549 1546 1544 1542 1539 1537 1534 1531 1528 1525 1523 1520 1517 1515 1513 1510
1490 1495 1499 1501 1502 1504 1505 1507 1509 1510 1512 1514 1516 1517 1518 1520 1521 1523 1526 1528 1530 1532 1534 1536 1538 1540 1542 1544 1546 1548 1550 1551 1552 1553 1554 1555 1556 1557 1558 1559 1561 1563 1565 1567 1568 1569 1569 1568 1568 1568 1568 1567 1567 1567 1566 1566 1565 1564 1563 1562 1561 1559 1558 1556 1554 1554 1554 1552 1551 1549 1546 1544 1542 1539 1537 1534 1531 1528 1525 1523 1520 1517 1515 1514 1511
1491 1495 1497 1499 1500 1502 1504 1506 1508 1509 1511 1513 1515 1516 1517 1519 1520 1522 1524 1526 1529 1531 1533 1535 1537 1539 1542 1544 1545 1547 1548 1549 1550 1552 1553 1554 1555 1556 1557 1558 1559 1561 1564 1566 1567 1567 1567 1567 1567 1567 1567 1567 1566 1566 1566 1565 1564 1563 1562 1561 1560 1559 1557 1556 1555 1554 1553 1552 1550 1549 1547 1544 1542 1539 1537 1534 1531 1528 1526 1523 1520 1518 1516 1513 1511
1490 1493 1495 1497 1499 1501 1502 1504 1506 1508 1510 1512 1514 1516 1517 1518 1520 1521 1523 1525 1527 1529 1531 1534 1536 1538 1540 1542 1544 1545 1546 1547 1549 1550 1551 1552 1553 1554 1556 1557 1558 1559 1561 1564 1566 1566 1566 1565 1565 1566 1566 1566 1566 1565 1565 1564 1563 1562 1562 1561 1560 1558 1557 1556 1555 1554 1553 1552 1550 1549 1547 1545 1542 1539 1536 1533 1531 1529 1527 1523 1520 1518 1516 1513 1511
1488 1491 1493 1495 1497 1499 1501 1503 1504 1506 1509 1511 1513 1515 1517 1518 1519 1520 1522 1524 1526 1528 1530 1532 1534 1536 1538 1540 1542 1543 1544 1546 1547 1548 1549 1551 1552 1553 1554 1556 1557 1558 1559 1561 1563 1564 1564 1564 1564 1564 1564 1565 1565 1564 1564 1563 1562 1562 1561 1560 1559 1558 1557 1557 1555 1553 1552 1551 1550 1548 1547 1545 1543 1540 1537 1534 1533 1531 1527 1523 1521 1518 1516 1513 1512
1486 1488 1491 1493 1495 1498 1499 1501 1503 1505 1508 1510 1512 1514 1516 1517 1518 1519 1520 1522 1524 1526 1528 1530 1532 1535 1536 1538 1540 1541 1542 1544 1545 1546 1548 1549 1550 1552 1553 1554 1556 1557 1558 1559 1560 1561 1562 1562 1563 1563 1563 1563 1563 1563 1563 1562 1561 1561 1560 1559 1559 1558 1557 1556 1554 1553 1552 1550 1549 1548 1547 1545 1543 1540 1537 1535 1533 1531 1527 1524 1522 1519 1516 1513 1512
1485 1486 1489 1491 1493 1495 1497 1499 1501 1504 1506 1509 1512 1513 1515 1516 1517 1518 1519 1520 1522 1524 1526 1528 1530 1533 1535 1536 1538 1539 1540 1542 1543 1544 1545 1547 1548 1550 1551 1553 1554 1555 1556 1557 1558 1560 1560 1561 1561 1561 1562 1562 1562 1561 1561 1560 1560 1560 1559 1559 1558 1558 1556 1555 1553 1552 1551 1550 1548 1547 1546 1545 1543 1541 1538 1536 1533 1531 1528 1525 1522 1520 1517 1514 1512
1483 1485 1487 1489 1491 1494 1496 1498 1500 1502 1504 1507 1509 1511 1513 1514 1516 1516 1517 1519 1520 1522 1524 1526 1528 1531 1533 1535 1537 1537 1538 1540 1541 1542 1543 1545 1547 1548 1550 1551 1553 1554 1555 1557 1558 1558 1559 1559 1560 1560 1560 1560 1560 1560 1560 1559 1559 1559 1559 1558 1558 1557 1555 1554 1552 1551 1550 1549 1548 1546 1545 1544 1542 1541 1539 1536 1533 1531 1529 1526 1523 1521 1518 1516 1513
1481 1483 1485 1487 1490 1493 1495 1497 1499 1500 1502 1505 1507 1509 1511 1513 1514 1516 1517 1518 1519 1521 1523 1525 1527 1529 1531 1533 1534 1535 1536 1538 1538 1540 1541 1543 1545 1547 1548 1550 1551 1552 1554 1555 1556 1557 1558 1558 1558 1559 1559 1559 1559 1559 1559 1559 1559 1558 1558 1557 1557 1556 1555 1554 1552 1551 1550 1548 1547 1545 1544 1543 1542 1540 1539 1536 1534 1531 1529 1527 1524 1522 1519 1517 1514
1479 1481 1483 1486 1489 1491 1493 1495 1497 1499 1501 1503 1505 1507 1508 1510 1513 1514 1515 1516 1518 1520 1522 1523 1525 1528 1530 1532 1532 1533 1535 1535 1536 1538 1540 1542 1544 1546 1547 1548 1549 1551 1552 1553 1555 1556 1556 1557 1558 1558 1558 1559 1558 1559 1559 1558 1558 1558 1557 1556 1556 1555 1555 1554 1553 1551 1549 1547 1546 1545 1543 1542 1541 1540 1539 1536 1533 1531 1529 1527 1525 1522 1520 1517 1515
1477 1479 1481 1484 1487 1489 1491 1493 1495 1497 1499 1501 1503 1504 1506 1508 1510 1512 1513 1515 1517 1519 1520 1522 1523 1526 1528 1530 1530 1531 1533 1534 1535 1537 1540 1541 1543 1544 1545 1546 1548 1549 1550 1552 1553 1554 1555 1556 1557 1557 1557 1557 1557 1557 1557 1556 1556 1556 1556 1555 1555 1554 1553 1553 1552 1550 1548 1547 1545 1544 1542 1541 1540 1539 1538 1535 1532 1530 1529 1527 1525 1522 1520 1518 1515
1475 1477 1480 1482 1484 1487 1489 1491 1493 1495 1497 1499 1501 1502 1504 1506 1508 1510 1511 1513 1515 1517 1519 1520 1522 1524 1526 1527 1528 1529 1531 1533 1534 1536 1537 1539 1541 1542 1543 1545 1546 1547 1549 1550 1551 1552 1553 1554 1555 1555 1556 1556 1555 1555 1555 1555 1554 1554 1554 1554 1553 1553 1552 1552 1551 1549 1547 1546 1545 1543 1542 1540 1538 1537 1536 1534 1532 1530 1528 1526 1525 1522 1520 1518 1515
1474 1476 1478 1480 1482 1485 1487 1489 1491 1493 1495 1497 1499 1500 1502 1504 1506 1507 1509 1511 1513 1515 1516 1518 1520 1522 1523 1525 1526 1528 1529 1531 1532 1534 1535 1537 1538 1540 1541 1543 1544 1546 1547 1548 1549 1550 1551 1553 1553 1554 1554 1553 1553 1553 1553 1553 1553 1553 1552 1552 1552 1551 1551 1550 1549 1548 1546 1545 1544 1542 1541 1539 1537 1535 1534 1533 1532 1530 1528 1526 1524 1522 1520 1517 1515
1472 1474 1476 1479 1481 1483 1485 1487 1489 1491 1493 1495 1497 1498 1500 1502 1503 1505 1507 1509 1511 1513 1514 1516 1518 1519 1521 1523 1524 1526 1528 1529 1530 1532 1533 1535 1536 1538 1539 1541 1542 1544 1545 1546 1547 1548 1550 1551 1551 1552 1552 1552 1551 1551 1551 1551 1551 1551 1550 1550 1550 1550 1549 1548 1547 1547 1546 1544 1543 1542 1540 1538 1536 1534 1533 1532 1531 1529 1527 1525 1523 1522 1520 1517 1515
1471 1473 1475 1478 1480 1481 1483 1485 1487 1489 1491 1493 1494 1496 1498 1500 1501 1503 1505 1507 1509 1511 1513 1515 1516 1517 1519 1521 1523 1525 1526 1528 1529 1530 1532 1533 1534 1536 1537 1539 1540 1542 1543 1544 1545 1546 1548 1549 1550 1550 1550 1550 1549 1549 1549 1549 1549 1549 1548 1548 1548 1548 1548 1547 1546 1545 1545 1543 1542 1541 1539 1537 1535 1533 1531 1530 1529 1528 1526 1524 1523 1521 1519 1516 1514
1470 1472 1473 1476 1478 1479 1481 1483 1485 1486 1489 1491 1493 1495 1497 1498 1499 1502 1504 1506 1508 1510 1513 1514 1516 1517 1518 1520 1522 1524 1525 1527 1528 1529 1530 1531 1533 1534 1535 1537 1538 1540 1541 1542 1543 1544 1546 1547 1548 1548 1548 1548 1548 1547 1547 1547 1546 1546 1546 1546 1546 1546 1546 1545 1545 1544 1543 1542 1540 1539 1537 1535 1534 1532 1530 1528 1527 1526 1525 1523 1521 1519 1517 1515 1512
1468 1470 1471 1473 1475 1477 1479 1481 1483 1485 1487 1489 1491 1492 1494 1496 1499 1501 1502 1503 1506 1509 1513 1515 1516 1517 1518 1519 1521 1523 1524 1526 1527 1528 1529 1530 1531 1532 1534 1535 1537 1539 1541 1542 1542 1543 1544 1545 1545 1545 1546 1546 1545 1545 1545 1545 1545 1544 1544 1544 1544 1544 1544 1543 1542 1541 1541 1539 1538 1537 1535 1533 1532 1530 1528 1527 1525 1524 1523 1522 1520 1518 1516 1513 1511
1466 1468 1469 1471 1473 1476 1478 1479 1481 1483 1485 1486 1488 1490 1492 1494 1497 1499 1500 1502 1503 1507 1511 1514 1516 1517 1518 1519 1520 1522 1523 1525 1526 1527 1528 1528 1529 1530 1532 1533 1535 1537 1539 1540 1541 1542 1542 1543 1543 1543 1543 1543 1543 1543 1543 1543 1543 1543 1542 1542 1542 1542 1541 1541 1540 1539 1538 1537 1536 1535 1534 1532 1531 1529 1527 1525 1524 1523 1521 1520 1518 1516 1514 1512 1510
1464 1466 1468 1470 1472 1474 1476 1477 1479 1481 1483 1484 1486 1488 1490 1492 1495 1497 1499 1501 1502 1503 1507 1511 1515 1517 1519 1519 1520 1521 1523 1524 1525 1526 1527 1528 1529 1529 1530 1532 1533 1534 1536 1537 1539 1539 1540 1541 1541 1541 1541 1540 1540 1541 1541 1541 1540 1540 1540 1540 1540 1540 1539 1539 1538 1538 1537 1536 1535 1534 1532 1531 1530 1528 1526 1524 1522 1521 1519 1517 1516 1514 1512 1510 1508
1462 1464 1466 1468 1471 1473 1474 1476 1478 1480 1481 1483 1485 1487 1489 1491 1493 1495 1497 1499 1500 1501 1503 1507 1512 1516 1517 1518 1519 1521 1522 1524 1525 1526 1527 1527 1528 1528 1529 1529 1530 1531 1533 1534 1535 1537 1537 1538 1538 1538 1538 1538 1539 1539 1539 1539 1538 1538 1538 1538 1537 1537 1537 1537 1536 1535 1535 1534 1532 1531 1530 1529 1527 1526 1524 1522 1520 1519 1517 1515 1513 1511 1509 1507 1505
1461 1463 1465 1467 1469 1471 1473 1475 1477 1479 1481 1483 1485 1487 1489 1491 1492 1494 1496 1497 1499 1500 1502 1504 1508 1512 1515 1516 1518 1520 1522 1523 1524 1525 1525 1526 1527 1527 1527 1528 1528 1529 1530 1531 1532 1533 1534 1535 1535 1536 1536 1537 1537 1537 1537 1536 1536 1536 1535 1535 1535 1535 1535 1534 1533 1533 1532 1531 1530 1528 1527 1526 1525 1523 1522 1520 1518 1516 1514 1513 1511 1509 1507 1505 1503
1460 1462 1464 1466 1468 1470 1472 1474 1476 1478 1480 1482 1484 1485 1488 1490 1491 1493 1494 1496 1498 1499 1501 1503 1506 1509 1512 1514 1516 1518 1519 1521 1522 1523 1524 1524 1525 1525 1525 1526 1526 1527 1527 1528 1529 1530 1531 1532 1533 1534 1535 1535 1535 1535 1534 1534 1534 1533 1533 1533 1533 1532 1532 1532 1531 1530 1529 1528 1527 1526 1524 1523 1522 1521 1519 1517 1515 1514 1512 1510 1508 1507 1505 1503 1501
1459 1461 1463 1465 1467 1469 1471 1474 1476 1477 1479 1481 1482 1484 1487 1489 1491 1492 1494 1495 1497 1499 1500 1502 1505 1507 1509 1511 1514 1516 1517 1518 1520 1521 1522 1523 1523 1523 1524 1524 1524 1525 1526 1527 1528 1529 1530 1531 1531 1532 1533 1533 1533 1532 1532 1531 1531 1531 1531 1531 1530 1530 1530 1529 1528 1527 1526 1525 1524 1523 1522 1520 1519 1518 1516 1514 1512 1510 1509 1507 1505 1503 1501 1500 1498
1458 1460 1462 1464 1466 1469 1471 1473 1474 1476 1478 1480 1482 1484 1486 1488 1489 1491 1492 1494 1496 1498 1500 1502 1504 1505 1507 1509 1511 1513 1514 1516 1518 1520 1521 1521 1521 1522 1522 1523 1523 1524 1525 1526 1527 1528 1528 1529 1529 1530 1530 1531 1530 1530 1530 1529 1529 1529 1529 1529 1528 1528 1527 1526 1525 1524 1523 1522 1521 1520 1518 1517 1516 1514 1513 1511 1509 1507 1505 1503 1501 1500 1498 1496 1494
1457 1459 1461 1463 1465 1468 1470 1472 1473 1475 1477 1479 1481 1482 1484 1486 1488 1489 1491 1493 1495 1497 1499 1501 1502 1504 1506 1507 1509 1511 1512 1514 1516 1517 1518 1519 1519 1520 1521 1522 1522 1523 1524 1525 1526 1526 1527 1527 1527 1528 1528 1528 1528 1528 1528 1527 1527 1527 1526 1526 1525 1525 1524 1523 1522 1521 1520 1519 1517 1516 1515 1514 1512 1511 1509 1507 1506 1504 1502 1500 1498 1496 1494 1492 1490
1457 1458 1460 1462 1464 1466 1469 1470 1472 1474 1476 1478 1479 1481 1483 1485 1486 1488 1490 1492 1494 1496 1498 1499 1501 1503 1504 1506 1507 1509 1511 1512 1514 1515 1516 1517 1518 1519 1520 1521 1521 1522 1523 1523 1524 1525 1525 1525 1525 1526 1526 1526 1526 1526 1526 1525 1525 1524 1524 1523 1522 1522 1521 1520 1519 1518 1516 1515 1514 1513 1511 1510 1509 1507 1505 1504 1502 1500 1498 1496 1494 1492 1490 1488 1486
1456 1458 1460 1462 1464 1466 1468 1469 1471 1473 1475 1476 1478 1480 1482 1484 1486 1488 1489 1491 1493 1495 1496 1498 1500 1502 1503 1505 1506 1507 1509 1510 1512 1513 1514 1515 1516 1517 1518 1519 1520 1520 1521 1522 1522 1523 1523 1523 1523 1523 1523 1524 1524 1524 1523 1522 1522 1521 1521 1520 1520 1519 1518 1517 1515 1514 1513 1512 1510 1509 1508 1506 1505 1503 1501 1500 1498 1496 1494 1493 1491 1489 1487 1485 1482
1456 1458 1460 1462 1464 1466 1467 1469 1470 1472 1474 1475 1477 1479 1481 1483 1485 1487 1488 1490 1492 1493 1495 1497 1499 1501 1502 1504 1505 1506 1507 1508 1510 1511 1512 1513 1514 1515 1516 1517 1518 1519 1519 1520 1521 1521 1521 1521 1521 1521 1521 1521 1521 1521 1520 1520 1519 1518 1518 1517 1516 1515 1514 1513 1512 1510 1509 1508 1507 1505 1504 1502 1501 1499 1498 1496 1494 1492 1491 1488 1487 1485 1483 1481 1479
1456 1458 1460 1462 1464 1466 1467 1468 1470 1471 1473 1475 1476 1478 1480 1482 1484 1486 1488 1489 1491 1493 1495 1497 1498 1500 1501 1502 1503 1505 1506 1507 1509 1510 1511 1512 1513 1514 1514 1515 1516 1517 1518 1518 1518 1518 1518 1519 1519 1519 1519 1519 1518 1518 1517 1517 1516 1515 1514 1514 1513 1512 1510 1509 1508 1507 1506 1504 1503 1502 1500 1499 1497 1496 1494 1492 1490 1488 1486 1484 1482 1481 1479 1477 1475
1456 1458 1460 1462 1463 1465 1466 1468 1469 1471 1472 1474 1476 1478 1480 1482 1484 1486 1487 1489 1491 1493 1494 1496 1497 1499 1500 1501 1502 1504 1505 1506 1508 1509 1510 1511 1512 1512 1513 1514 1515 1515 1515 1516 1516 1516 1516 1516 1516 1516 1516 1516 1515 1515 1514 1513 1513 1512 1511 1510 1509 1508 1507 1506 1505 1503 1502 1501 1500 1498 1497 1495 1493 1492 1490 1488 1486 1484 1482 1480 1478 1477 1475 1473 1471
1457 1458 1460 1462 1463 1465 1466 1467 1469 1471 1472 1474 1476 1478 1480 1482 1483 1485 1487 1489 1490 1492 1493 1495 1496 1497 1499 1500 1502 1503 1504 1506 1507 1508 1509 1509 1510 1510 1511 1512 1512 1513 1513 1513 1514 1514 1514 1514 1514 1513 1513 1513 1512 1512 1511 1510 1509 1508 1507 1506 1505 1504 1503 1502 1501 1500 1499 1498 1496 1495 1493 1491 1490 1488 1486 1484 1482 1480 1479 1477 1474 1473 1471 1469 1468
Wind_Speed
21 20 18 18 19 20 21 22 22 21 20 17 14 13 9 5 2 3 3 9 13 13 13 13 12 11 11 11 11 13 14 15 16 16 17 17 18 18 17 17 17 17 17 18 19 21 21 21 21 22 23 23 23 23 24 24 24 23 23 23 24 24 25 22 16 15 19 23 24 24 29 34 31 29 34 40 43 42 36 31 30 28 26 27 29
22 21 19 19 21 22 22 23 22 22 20 17 15 14 9 5 2 2 1 9 13 13 13 14 13 12 12 12 13 15 15 16 17 17 17 17 18 18 17 17 17 17 18 19 20 21 21 21 21 22 23 23 22 22 23 23 22 22 23 23 23 23 25 24 19 17 19 22 25 26 29 33 30 26 30 38 44 43 36 31 30 29 27 28 29
23 21 20 21 22 23 24 23 22 21 19 18 16 13 8 5 3 2 1 9 14 14 13 13 13 13 12 13 15 16 17 17 18 17 17 17 17 18 18 17 17 18 20 20 20 20 21 21 21 22 22 21 22 21 21 21 21 21 22 22 23 23 24 24 20 17 18 20 22 24 27 31 29 26 30 36 42 43 39 33 30 29 28 29 29
23 21 21 22 23 24 24 24 23 22 20 19 17 12 8 6 4 3 3 9 14 14 15 14 13 14 13 14 16 17 18 18 18 18 18 17 17 18 18 18 18 19 20 20 20 20 20 21 21 21 21 20 21 20 19 20 20 21 21 20 21 22 22 20 19 17 16 18 20 22 24 27 29 29 31 36 40 42 42 37 30 28 29 29 28
22 22 23 23 24 25 24 24 24 22 21 20 16 12 8 7 7 5 5 11 14 15 16 14 14 14 14 15 17 18 19 19 18 18 18 18 18 18 18 18 19 19 19 19 20 20 19 20 20 19 19 19 19 18 17 18 20 20 20 19 19 21 20 19 20 18 15 16 19 21 22 25 29 31 34 37 39 40 43 41 32 26 28 30 28
23 23 24 24 25 25 23 23 23 22 21 19 15 12 10 9 8 6 7 13 14 15 16 15 15 15 15 17 18 19 19 19 18 18 18 18 18 18 18 19 19 20 20 19 20 20 19 19 18 18 18 18 17 16 16 18 19 20 20 20 20 21 21 21 21 18 16 16 18 21 22 25 29 32 36 39 39 39 42 43 35 28 29 30 30
24 22 23 25 25 24 22 20 21 22 20 17 15 13 12 11 8 6 9 14 14 15 17 16 16 16 16 18 19 19 20 19 18 18 18 18 18 18 18 19 19 20 20 20 19 19 18 17 17 16 16 16 15 15 16 18 19 19 20 21 21 22 21 21 21 18 15 16 18 20 21 24 29 32 35 39 40 40 40 38 33 31 31 31 31
23 21 22 24 24 24 22 20 20 21 19 16 16 14 14 13 8 6 12 15 15 16 17 16 17 17 17 19 20 20 20 19 19 19 18 19 18 18 19 19 19 19 19 19 19 18 17 16 16 15 15 14 14 15 16 17 18 18 19 20 21 23 22 20 19 18 16 16 18 19 21 24 28 33 37 40 42 41 38 32 29 30 32 31 31
23 21 21 23 24 24 24 22 20 20 17 17 17 15 15 12 8 9 14 15 16 17 17 16 17 17 19 20 21 21 20 20 20 19 19 19 19 19 19 19 19 19 18 18 18 17 16 15 14 14 13 13 14 14 15 17 17 17 18 19 20 22 23 21 19 18 16 16 18 19 21 23 27 32 37 41 41 40 36 31 27 28 30 31 30
25 23 21 21 24 25 24 22 20 19 18 18 18 16 14 10 9 13 15 15 17 18 17 17 17 18 20 21 22 22 21 20 20 20 20 20 20 20 19 19 18 18 17 17 17 15 14 13 13 12 12 13 13 14 15 16 17 17 17 19 20 22 24 23 22 20 17 16 18 19 21 23 25 29 35 39 41 39 35 31 29 28 29 31 31
26 24 20 19 22 24 23 22 21 20 21 20 18 16 13 11 13 16 16 16 18 19 18 18 18 18 21 22 22 22 21 20 19 19 20 21 21 20 19 18 18 17 17 16 15 14 13 12 12 11 11 12 13 13 14 15 16 17 17 19 20 21 23 23 23 23 19 16 17 19 21 22 23 27 33 38 41 41 36 31 30 30 30 32 33
27 24 19 17 20 24 24 24 24 22 22 21 18 15 13 13 15 17 18 18 19 19 19 19 19 20 22 23 23 22 21 20 19 19 19 21 21 20 19 18 18 16 16 16 14 13 12 11 10 10 9 10 11 12 13 14 15 15 17 18 19 20 21 22 23 23 22 17 16 18 20 22 23 27 33 37 39 40 38 34 32 30 28 30 31
28 22 18 17 20 24 26 26 24 22 21 20 17 15 15 15 17 18 19 19 20 20 20 19 19 20 22 24 23 23 22 21 21 21 21 21 21 20 18 18 17 16 16 16 14 14 12 10 9 8 8 9 10 10 11 12 13 15 17 18 19 20 20 21 22 23 23 20 17 18 20 22 23 27 32 35 37 39 38 35 32 28 26 27 29
30 23 21 20 20 24 26 25 24 22 22 20 17 16 17 18 18 19 20 20 21 21 20 19 19 20 22 24 24 23 22 22 22 23 22 21 21 20 18 18 17 16 16 15 14 14 12 11 9 8 7 7 8 9 9 10 12 14 15 15 17 19 21 21 22 22 23 22 20 20 21 22 23 26 30 32 35 36 34 32 31 27 25 24 27
32 25 24 23 22 23 24 24 24 23 21 19 18 18 19 20 21 21 21 21 22 22 21 20 20 21 23 24 24 23 22 22 22 23 23 21 21 20 19 18 17 16 16 15 14 13 12 10 9 8 7 6 7 7 8 9 11 13 14 14 15 17 19 20 20 22 22 22 22 22 22 23 23 25 28 29 33 34 29 27 28 26 23 22 25
32 27 25 24 22 23 24 24 24 23 20 19 21 22 22 22 23 22 22 22 23 22 21 21 21 23 24 24 23 22 21 21 21 22 22 21 20 19 18 18 17 16 15 14 14 13 11 10 9 8 7 6 6 6 7 8 10 11 12 12 13 13 15 18 19 21 21 21 22 22 23 24 24 26 28 27 31 33 28 24 26 25 23 23 26
31 27 24 21 20 22 25 25 24 22 21 22 24 24 23 24 24 24 24 24 25 24 23 23 23 24 24 23 22 21 21 21 21 22 22 21 21 19 17 16 16 16 15 14 13 12 11 10 10 9 7 5 5 5 5 6 8 9 10 11 11 12 14 17 18 20 20 19 20 20 20 23 25 27 28 27 29 31 28 26 26 24 23 24 26
32 29 24 21 20 21 23 23 22 21 23 25 25 24 25 26 26 25 25 26 27 26 26 25 25 24 23 22 21 20 20 20 20 21 22 21 21 19 16 15 16 15 14 14 13 12 10 10 9 8 7 5 4 4 4 5 6 8 9 11 12 13 15 17 18 19 19 18 20 20 20 23 24 26 28 27 29 29 26 26 26 23 23 23 25
33 31 27 24 24 24 23 22 22 22 24 26 25 25 27 28 27 26 26 26 27 26 25 24 23 23 22 22 21 19 19 19 20 21 21 21 22 19 14 13 15 15 13 13 12 11 10 9 8 7 7 5 3 2 2 4 5 7 9 10 11 13 15 16 17 19 19 20 20 20 19 21 21 21 23 25 27 28 26 24 24 22 22 22 23
35 33 30 27 26 25 24 24 25 25 26 27 27 27 28 28 28 28 27 26 25 25 24 23 22 23 23 23 22 20 19 18 19 20 21 21 22 20 15 13 14 15 13 11 10 10 9 8 7 7 5 4 3 1 2 3 5 6 8 9 11 13 14 16 17 19 20 19 17 17 17 19 18 18 20 21 23 27 27 24 23 21 20 21 22
35 32 30 26 24 23 24 24 25 26 27 27 26 27 27 28 28 27 26 26 26 25 25 25 24 24 24 23 23 22 19 18 18 20 21 20 21 21 18 14 12 12 12 10 8 7 7 7 7 6 5 3 2 0 2 3 5 6 7 9 11 12 14 16 18 17 16 15 15 15 16 18 18 19 20 19 21 25 27 25 25 22 19 18 20
33 29 27 26 24 24 25 24 23 24 25 24 25 26 27 27 28 28 27 27 27 27 27 26 25 24 24 23 23 22 20 19 19 20 20 20 20 20 19 16 15 12 9 8 8 7 7 8 8 6 5 3 2 1 2 3 5 6 7 9 10 12 14 16 16 14 13 13 14 14 16 17 18 19 20 20 22 25 26 25 27 26 21 17 17
30 27 26 26 25 24 24 22 21 22 23 24 26 27 27 27 28 27 27 28 29 28 27 27 26 25 25 24 23 23 21 20 20 20 20 20 20 20 19 19 19 16 10 7 7 8 8 9 9 7 5 4 2 1 2 4 4 5 7 8 9 12 14 14 13 11 11 13 14 14 15 17 17 19 21 22 23 25 25 25 25 24 22 19 16
27 27 27 27 26 24 23 22 22 22 23 25 27 27 26 27 26 26 28 29 30 30 29 28 27 26 25 24 24 24 23 22 21 21 21 20 20 19 19 18 18 18 14 9 7 8 9 10 9 8 6 4 2 2 2 3 4 5 6 7 10 12 12 10 10 10 11 12 13 14 15 16 17 19 22 22 21 23 24 25 24 22 22 20 17
25 27 27 27 27 25 24 23 22 22 23 26 27 26 25 25 25 26 28 30 30 30 29 27 26 26 25 25 24 25 24 23 22 22 22 21 20 19 19 18 17 18 16 13 11 12 12 11 10 8 6 5 3 2 2 3 4 5 5 7 9 10 9 8 9 9 10 10 12 13 14 16 17 19 20 19 19 21 24 25 23 23 23 21 18
24 26 27 27 27 27 26 24 22 22 23 25 25 23 23 25 26 28 29 30 29 28 27 26 26 24 24 23 23 24 24 23 23 23 22 22 21 20 20 19 17 17 17 15 14 14 12 11 10 9 7 5 3 2 3 3 4 4 5 7 8 7 6 7 8 8 9 10 11 12 13 15 16 17 18 18 19 20 23 23 22 22 22 21 19
24 26 26 27 28 28 27 25 24 24 24 25 25 24 23 25 27 28 30 30 29 27 26 26 25 23 22 23 22 23 24 23 23 24 24 23 22 21 20 19 18 17 17 15 14 13 12 11 10 9 7 5 4 4 3 3 4 4 5 5 5 4 4 6 8 9 8 9 9 11 12 14 15 16 17 18 19 19 21 22 21 21 21 20 19
23 24 27 29 29 29 28 25 24 25 26 26 27 25 24 25 27 28 29 30 29 27 26 26 25 23 21 22 22 22 23 23 23 25 25 24 23 22 20 19 18 17 16 13 12 12 12 11 10 8 7 6 5 5 4 4 4 4 4 4 4 4 3 5 8 7 7 8 8 10 12 13 14 16 16 18 19 19 20 21 21 20 21 20 20
24 26 29 30 29 29 28 26 25 26 27 28 28 26 25 26 26 25 26 28 28 27 25 25 24 22 20 21 22 23 23 24 25 26 25 24 23 22 21 19 18 17 16 15 14 13 12 11 9 8 7 7 6 5 5 5 5 5 5 5 4 4 4 4 4 4 6 8 8 9 11 13 14 15 16 18 19 18 19 20 19 20 20 20 21
25 26 28 30 29 29 29 27 25 26 28 29 29 27 27 27 26 24 24 26 26 25 24 23 23 22 20 20 22 24 24 24 26 25 23 22 21 21 21 20 19 18 18 17 16 14 11 10 10 10 9 9 7 7 7 6 6 6 6 6 4 4 3 3 2 3 6 8 8 9 11 12 13 14 16 18 19 18 18 19 19 18 19 20 21
25 27 28 28 28 27 27 26 26 27 28 29 29 29 29 28 26 24 24 23 22 22 23 23 24 23 20 19 22 26 25 23 22 20 19 20 20 20 20 20 19 18 17 16 17 15 12 11 11 11 10 10 9 8 8 7 7 6 6 6 6 5 4 3 4 5 7 8 8 9 10 11 12 14 16 18 19 18 18 19 19 18 19 20 21
23 26 27 27 27 27 27 27 26 27 28 30 31 30 29 27 26 24 23 21 21 21 21 21 22 22 21 21 22 23 23 21 19 19 19 20 20 20 20 19 19 19 18 17 17 16 12 12 12 12 11 11 10 9 9 8 7 7 6 6 6 6 5 5 5 6 7 8 9 10 11 11 13 15 16 17 18 17 17 18 18 18 18 19 20
21 23 25 27 27 27 27 27 27 27 28 30 31 31 29 27 26 25 24 22 21 21 21 21 21 20 20 20 20 20 20 20 19 18 19 19 20 20 20 19 19 19 19 19 19 16 13 12 13 12 12 11 10 10 9 8 8 8 7 7 7 6 6 6 6 6 8 9 11 12 12 12 14 15 16 16 16 16 17 17 17 17 18 19 20
20 20 21 24 25 26 26 26 27 29 29 29 30 30 29 28 27 26 25 24 23 23 23 23 22 21 20 19 19 19 20 19 18 17 17 18 18 19 19 19 19 19 19 19 19 17 14 13 13 12 12 11 10 10 9 9 9 8 8 8 8 7 7 7 7 8 9 10 11 12 13 14 14 15 16 17 17 17 17 17 16 17 18 18 19
19 19 20 22 23 25 26 26 27 29 29 29 29 29 29 29 28 27 25 24 25 24 23 23 23 22 21 20 20 20 20 19 18 17 16 16 17 17 18 18 19 19 19 20 20 18 15 13 13 12 12 11 10 10 10 9 9 9 9 8 8 8 8 8 8 8 9 11 12 13 15 16 16 16 17 17 17 16 16 16 15 17 18 18 19
18 19 21 23 24 25 26 26 26 27 27 27 28 29 29 29 28 25 23 23 24 23 21 21 22 21 20 21 22 22 21 20 19 17 16 16 15 16 17 17 18 18 18 19 19 18 16 14 14 13 12 11 11 10 10 10 10 10 10 9 9 9 8 8 8 9 11 13 15 16 17 18 17 17 17 16 15 15 15 15 16 17 19 20 22
19 20 21 24 26 26 26 26 27 26 25 26 27 28 28 27 25 22 21 22 23 21 19 19 21 22 22 23 24 23 22 20 19 17 17 16 16 15 16 15 15 15 16 16 17 17 16 15 14 13 12 12 12 11 11 11 10 10 11 11 10 10 10 10 10 11 13 14 15 16 17 17 17 16 16 16 16 15 15 16 17 19 21 22 22
20 20 20 23 25 25 25 26 27 26 25 26 26 26 27 25 23 22 21 22 23 22 18 18 21 23 24 24 25 24 22 20 18 18 18 18 17 16 16 15 15 15 15 15 15 15 15 15 14 14 13 13 12 12 12 11 11 11 11 11 11 11 11 12 12 13 14 14 15 15 15 15 15 14 14 15 16 17 18 19 20 21 22 23 22
18 18 19 21 23 23 24 25 25 25 26 26 26 26 26 25 24 23 21 20 22 23 21 19 22 24 24 24 24 23 21 19 19 18 18 18 17 16 16 16 17 17 17 16 15 15 15 15 14 14 14 13 13 13 12 12 12 12 12 12 12 12 12 12 12 13 14 14 15 16 16 15 15 15 15 16 17 18 20 22 23 25 26 27 26
18 18 19 21 22 23 23 23 23 24 25 26 26 25 25 24 23 22 21 21 22 24 23 22 23 24 24 24 24 22 21 19 18 18 18 17 16 16 16 17 18 19 19 18 17 16 16 16 16 15 15 14 14 13 13 13 13 13 13 13 13 13 13 14 14 15 15 16 17 18 18 18 18 17 18 18 19 21 24 26 26 26 27 28 30
16 18 19 21 22 23 22 22 23 23 23 24 24 24 24 24 23 22 21 22 23 23 23 23 24 24 24 24 22 20 19 18 17 17 17 16 15 16 16 17 17 18 18 18 18 18 18 18 17 15 14 14 14 14 14 14 14 15 14 14 14 15 15 16 16 17 18 18 19 20 20 20 20 20 21 21 22 24 26 28 28 27 27 29 31
14 16 19 20 22 22 21 21 22 22 22 22 23 24 25 24 23 22 21 22 23 23 23 23 23 23 23 22 20 18 17 16 15 16 17 16 15 16 16 17 17 17 17 17 17 17 17 16 15 14 14 14 14 15 16 17 17 17 17 17 17 17 17 17 18 19 20 20 20 20 21 22 22 23 24 25 26 27 28 29 30 30 31 32 32
13 15 17 19 20 21 20 20 20 22 22 22 22 23 24 24 22 22 21 22 22 22 23 22 20 20 21 21 19 17 16 15 15 16 17 17 16 17 17 17 17 16 16 15 15 14 14 14 14 14 14 14 15 17 18 18 18 18 18 19 19 18 18 19 19 21 21 20 20 21 23 23 24 25 27 28 29 29 30 31 32 32 32 32 32
13 15 16 18 19 20 19 18 19 21 22 21 21 22 23 22 22 21 21 21 21 21 20 20 18 18 20 20 18 17 16 16 16 16 17 17 17 17 17 16 15 14 13 13 12 12 13 13 14 14 14 15 16 16 16 17 17 18 18 19 19 19 20 20 21 22 22 22 22 23 24 25 26 27 28 29 30 30 31 31 31 32 32 32 32
13 14 15 16 18 19 19 18 17 18 19 19 20 21 21 21 20 20 20 19 19 19 19 18 17 17 18 18 16 16 16 16 16 17 18 17 16 15 15 14 13 13 12 12 12 13 14 15 15 15 16 16 16 15 15 15 16 17 18 19 20 20 21 22 23 23 25 26 26 25 25 25 27 28 28 29 30 30 30 30 31 32 32 32 32
12 13 13 15 17 18 19 18 17 16 17 18 19 20 20 19 19 19 19 18 18 19 18 17 16 16 16 16 15 14 14 15 16 17 16 14 13 13 13 13 13 12 12 13 15 16 17 17 17 17 17 17 16 16 16 17 17 18 19 20 21 22 23 24 25 27 28 28 28 26 26 26 27 27 28 29 30 30 30 31 32 32 32 32 33
12 12 13 15 16 17 17 16 17 17 17 18 19 19 19 18 18 18 18 18 18 18 17 16 15 16 15 14 14 15 16 16 16 15 13 13 13 14 14 14 14 13 14 14 15 16 17 17 18 18 18 18 18 18 19 20 20 21 21 22 23 24 25 27 28 29 29 28 27 26 26 27 27 27 28 29 29 30 30 31 31 31 31 32 33
12 12 14 15 15 14 14 15 16 17 17 17 17 17 18 18 18 18 18 18 17 17 17 16 16 16 15 15 15 15 15 15 15 14 14 14 13 13 14 14 13 13 13 14 15 16 17 17 18 19 19 19 19 21 22 22 23 23 23 24 25 26 28 28 29 28 27 26 26 26 27 27 28 28 29 29 30 30 31 31 32 32 33 33 34
12 13 14 14 14 14 14 15 16 16 16 16 16 17 18 19 19 18 18 17 16 15 15 15 15 15 14 14 14 14 14 15 15 14 12 11 10 11 12 12 12 12 13 14 15 16 17 17 18 18 19 20 21 21 22 23 23 24 25 26 27 28 28 27 26 25 25 25 26 26 27 27 28 29 29 30 30 31 32 32 33 34 34 35 34
15 14 14 14 14 14 15 15 15 15 16 16 17 18 18 18 17 16 15 14 13 13 13 14 14 13 13 12 13 14 14 14 13 12 11 10 10 10 11 11 12 14 15 16 17 17 17 17 18 19 20 21 21 22 23 24 25 25 26 26 26 26 25 24 24 24 25 25 25 26 26 27 28 29 29 30 31 32 32 33 33 34 34 33 31
15 15 14 14 14 14 15 15 15 16 16 17 17 17 16 15 14 13 13 12 12 13 13 14 13 12 12 12 12 13 13 12 12 11 11 10 10 11 11 13 15 16 18 18 18 18 18 18 19 19 20 21 22 23 24 24 25 25 24 24 23 23 23 24 24 24 25 25 26 26 27 28 28 29 30 31 32 32 32 32 32 32 31 28 25
Wind_Direction
185 193 193 186 188 192 185 175 173 175 175 175 171 162 160 166 150 39 96 152 158 158 152 145 143 145 146 149 149 147 147 143 136 135 134 128 124 121 120 120 117 113 111 107 104 101 96 93 90 86 84 80 76 73 70 66 64 60 58 54 49 46 46 43 27 11 13 16 14 11 12 16 13 5 4 11 15 12 4 355 351 351 347 343 343
187 194 195 187 185 187 181 174 174 173 172 175 172 164 163 162 131 20 100 161 163 162 157 150 149 150 151 154 151 148 147 142 137 137 135 130 127 126 124 123 120 116 112 108 104 102 99 95 92 87 84 81 77 72 69 66 62 59 56 52 48 44 42 41 30 13 9 11 12 11 11 13 9 359 359 7 13 12 3 355 353 352 348 345 344
187 194 194 186 183 182 176 172 172 171 172 176 170 163 166 166 158 318 244 171 168 166 161 156 154 154 155 157 153 151 149 142 139 138 135 132 130 128 128 125 122 118 114 111 106 103 101 97 92 88 84 80 76 70 66 65 60 56 53 48 44 41 38 36 28 14 5 3 4 2 4 8 6 359 360 6 12 12 6 360 356 353 349 346 345
188 193 190 182 178 176 172 170 171 174 177 176 168 164 172 181 199 261 237 181 173 168 163 160 158 157 158 159 156 154 150 144 142 140 137 137 134 132 131 128 124 122 118 115 110 105 102 98 93 89 85 80 75 70 65 62 58 54 51 45 40 38 35 29 23 15 1 355 358 357 359 3 4 3 3 5 10 11 9 6 358 352 350 347 346
187 189 187 179 173 171 170 171 174 178 178 172 167 172 183 197 222 248 215 182 175 171 166 163 162 161 160 160 158 155 151 146 144 143 141 140 138 136 135 131 127 125 121 117 113 109 104 99 95 91 85 80 75 70 65 61 57 52 49 45 39 37 34 28 24 17 3 354 355 357 359 0 3 8 8 7 7 7 10 11 3 351 349 348 347
183 184 183 177 173 171 170 172 176 178 175 168 169 180 192 207 230 245 196 177 175 174 170 165 164 163 161 162 161 157 153 149 147 146 144 143 142 140 137 134 132 128 124 120 115 110 106 101 97 92 86 81 76 70 64 60 56 50 47 45 40 38 35 30 25 17 5 0 357 357 360 360 3 8 9 10 9 5 7 10 5 354 350 349 347
179 180 180 179 178 175 171 172 178 178 172 170 176 185 195 206 225 226 183 174 175 175 172 169 166 164 163 164 163 159 156 153 151 150 148 146 145 143 141 138 135 131 126 122 117 112 108 103 98 93 87 81 75 68 63 60 55 47 43 43 40 38 35 30 25 17 6 4 1 359 359 360 3 7 9 12 13 9 6 2 357 353 350 349 349
179 181 182 183 183 181 177 177 180 177 172 176 185 191 196 204 217 204 178 173 176 176 174 172 169 166 165 166 166 164 160 156 155 153 151 149 147 145 143 140 137 132 127 122 118 113 110 105 99 93 87 82 76 68 61 59 55 47 41 40 38 36 35 30 22 17 10 5 4 1 358 360 3 6 9 12 12 11 6 358 350 349 349 349 351
182 182 182 185 188 188 185 182 180 176 177 186 192 193 196 202 208 192 179 176 177 177 176 174 172 169 168 169 169 166 163 160 159 156 153 151 149 147 144 141 137 132 127 123 118 114 110 105 99 93 87 81 74 67 61 57 54 48 41 39 37 35 34 32 24 18 12 6 5 3 360 0 2 4 7 11 12 9 5 359 352 350 350 352 353
186 182 180 185 190 191 188 185 180 178 185 192 192 192 196 202 198 184 181 181 179 177 176 176 175 173 171 171 172 169 167 165 162 159 155 153 151 149 146 142 138 133 128 124 119 115 111 103 95 89 84 78 72 65 60 55 51 47 41 38 35 34 33 32 27 23 16 8 5 3 1 1 2 2 5 10 14 13 7 -0 355 352 353 355 355
187 182 180 182 188 188 186 186 184 184 189 191 190 192 196 198 191 183 184 185 180 178 178 177 176 175 174 175 175 173 169 165 162 160 157 155 152 151 149 144 140 136 131 126 122 118 111 103 96 88 81 76 71 64 58 54 50 45 40 36 33 31 31 29 27 25 22 13 5 4 3 1 1 3 6 10 14 16 11 2 357 355 356 358 356
186 181 180 180 183 185 186 188 186 186 189 189 190 194 193 190 187 184 187 187 181 180 181 180 179 178 178 178 177 174 169 165 163 161 158 157 154 151 150 147 143 140 136 132 127 121 113 106 100 92 84 78 72 65 56 50 47 44 40 38 34 31 29 27 25 24 24 18 7 4 5 4 2 4 8 11 12 15 16 8 1 358 357 358 355
184 180 180 181 185 189 192 190 186 187 189 189 193 195 190 189 188 187 190 188 183 183 183 182 181 180 180 180 178 176 172 168 165 161 159 159 155 150 151 151 147 145 144 140 134 129 122 115 108 99 92 83 76 72 60 49 45 41 37 35 32 30 28 26 24 22 23 20 12 7 7 7 6 7 11 12 11 14 17 10 2 358 356 357 355
185 181 180 183 192 196 193 189 187 189 191 192 195 194 191 192 192 191 192 189 186 186 185 182 181 181 183 183 181 180 176 171 168 163 160 161 157 153 155 156 153 152 151 146 141 137 131 126 122 113 103 92 82 78 69 59 52 46 41 35 30 27 24 23 22 20 21 20 16 13 12 11 10 9 12 13 12 15 15 6 1 359 354 354 354
187 183 182 185 190 193 191 189 190 192 193 193 193 194 196 196 194 194 193 191 188 187 185 182 180 181 184 185 185 184 179 174 170 164 161 160 158 157 157 158 157 157 155 151 145 140 136 135 133 125 116 106 92 83 74 68 62 54 49 40 32 28 22 20 21 19 18 18 16 16 15 13 11 11 14 13 11 16 16 3 2 2 355 352 355
188 183 182 182 184 192 196 194 193 194 196 196 194 197 199 196 195 195 193 190 189 187 185 183 180 181 184 185 188 189 183 177 171 165 162 160 158 158 158 159 161 161 160 156 150 146 145 145 142 135 129 122 105 92 77 70 67 58 50 42 33 26 20 20 21 19 18 16 15 15 15 14 13 13 15 13 10 16 16 4 3 3 357 355 358
188 185 183 183 188 198 201 196 193 196 199 198 197 198 198 195 195 196 193 190 189 187 185 183 181 182 182 182 187 192 187 179 172 166 163 162 160 159 159 161 164 165 164 160 154 154 155 154 152 145 140 135 117 100 79 69 69 60 51 45 36 27 21 19 19 17 16 14 13 13 13 14 15 15 15 13 11 15 15 7 4 0 357 358 358
189 187 187 189 193 200 202 199 197 198 199 201 200 199 197 195 195 194 193 192 190 188 187 184 181 181 181 179 185 193 190 181 176 171 167 166 164 160 159 165 167 167 168 165 159 160 163 163 160 152 148 146 129 107 81 64 62 54 44 37 31 24 20 18 15 12 11 11 12 14 12 12 13 13 13 13 13 16 15 9 6 1 358 358 356
190 189 188 189 193 197 199 199 197 198 202 204 203 200 197 194 192 192 192 192 191 189 187 184 180 180 179 178 184 193 193 185 180 176 172 172 168 160 158 170 171 167 169 168 164 165 170 172 168 159 157 154 137 115 67 48 48 43 39 33 26 20 17 15 10 8 9 10 10 10 7 7 7 5 5 8 11 15 15 10 6 1 358 357 356
193 192 190 189 193 194 194 194 195 199 203 203 201 199 195 192 191 191 190 188 188 187 184 183 181 179 179 180 186 195 196 190 186 183 178 177 172 164 161 172 175 170 168 167 168 171 174 179 179 172 168 163 149 122 36 34 35 35 34 28 21 18 15 11 8 9 9 6 2 1 1 3 3 -0 1 2 5 13 17 14 8 2 355 354 356
198 195 191 190 193 194 194 196 198 202 204 202 198 194 191 192 191 189 187 184 184 186 186 185 184 182 182 185 190 195 196 192 192 190 185 182 178 170 165 169 174 173 170 168 171 177 179 188 194 189 181 175 170 118 19 21 26 32 30 22 19 16 11 8 10 12 6 358 357 359 -0 2 3 2 2 359 0 10 14 13 14 11 359 351 354
201 195 190 191 194 194 196 198 200 204 204 199 193 189 190 192 191 188 187 186 186 188 188 186 186 187 188 191 195 199 199 195 196 195 191 188 184 177 173 173 174 173 174 177 180 184 193 200 203 201 196 190 202 278 0 14 23 28 22 18 16 11 7 10 13 10 1 359 2 0 360 4 4 3 3 2 5 10 8 7 14 15 5 356 355
203 195 192 195 197 196 197 199 200 202 200 195 192 191 191 192 190 189 189 188 188 190 189 186 188 192 194 196 201 204 203 199 198 198 197 194 188 184 183 182 178 171 170 185 192 192 203 209 206 205 208 207 222 283 347 9 18 22 18 16 12 8 10 13 11 5 3 4 4 2 2 4 3 2 6 8 8 7 3 5 11 9 1 359 359
203 198 197 200 200 198 198 202 202 201 198 195 193 194 194 193 192 190 188 188 188 189 189 187 190 194 196 198 203 206 205 204 202 200 200 198 193 190 190 188 184 179 173 179 198 203 207 211 208 208 214 218 237 287 337 1 9 15 14 9 6 9 15 15 8 8 10 7 7 7 4 3 3 4 7 8 3 360 3 11 13 7 2 3 -0
205 204 203 204 202 198 199 203 203 201 199 196 195 196 197 197 195 190 188 189 189 188 188 189 192 195 196 199 203 204 204 206 206 202 200 199 197 196 195 192 191 188 181 182 198 206 207 208 208 210 215 220 240 284 322 352 6 9 5 5 7 10 13 13 13 17 16 11 11 9 4 3 3 2 3 3 359 357 3 10 11 8 9 8 1
210 209 207 206 204 200 200 202 201 199 200 199 197 198 200 199 196 192 189 190 191 189 189 191 192 194 197 198 201 202 201 205 208 203 200 201 201 200 200 198 195 194 192 193 199 205 206 208 210 212 217 226 241 272 308 337 352 353 354 3 7 5 6 17 27 29 23 16 15 11 5 2 359 359 1 3 1 360 2 3 2 3 5 4 359
215 212 208 207 206 202 201 201 200 197 197 198 198 201 203 202 198 194 192 192 192 190 191 192 192 193 197 197 197 200 201 202 206 206 204 205 206 204 204 202 199 199 200 200 202 206 209 212 214 214 219 231 245 263 290 320 336 340 340 341 341 346 11 31 37 36 27 17 13 8 3 359 356 357 0 2 1 1 360 0 0 360 360 0 359
216 213 211 210 208 204 202 203 201 196 194 196 200 203 204 204 204 202 199 196 194 193 194 195 193 192 196 195 193 197 200 201 205 209 208 207 208 209 208 207 206 204 203 204 210 215 215 216 218 220 225 235 249 263 278 292 300 305 300 291 295 304 335 9 22 26 19 11 9 5 2 359 355 353 355 357 359 358 357 358 359 359 359 1 1
216 214 213 211 208 204 203 203 202 199 196 197 200 204 206 207 208 209 208 205 201 198 197 198 196 195 196 196 196 198 201 203 208 212 212 210 209 210 210 210 210 209 205 204 210 216 219 220 223 225 229 237 242 242 247 255 258 264 274 282 285 281 290 328 351 356 2 6 4 359 358 356 353 350 350 352 353 354 355 356 356 357 -0 1 1
214 214 214 212 209 206 205 204 203 203 201 199 200 205 210 210 209 210 213 212 209 205 203 202 200 198 196 199 204 204 204 208 213 215 215 213 212 212 213 212 212 213 212 209 208 210 214 220 225 225 226 230 233 231 233 240 243 249 265 277 274 259 263 289 306 324 354 3 356 349 350 351 350 348 346 347 350 352 352 352 353 354 357 358 358
212 212 213 212 211 211 210 206 205 206 205 202 202 207 212 213 212 214 217 217 215 215 214 211 208 204 198 200 210 212 211 214 217 214 213 213 212 213 217 217 216 217 217 213 211 210 212 218 223 226 227 229 232 233 235 241 243 244 252 260 257 253 261 274 290 316 338 343 336 336 341 341 342 343 342 342 347 348 346 347 349 350 352 353 354
214 214 212 211 212 213 212 210 209 210 208 206 207 212 215 214 213 215 217 216 214 216 217 216 217 214 207 208 216 218 214 212 211 209 210 212 213 215 217 218 220 221 218 215 213 212 216 224 228 229 230 232 235 237 237 238 241 245 248 248 246 249 255 267 292 317 325 324 324 329 333 333 334 337 336 336 338 339 339 340 342 343 345 347 347
216 217 215 212 212 214 214 212 212 213 212 211 212 215 215 214 214 215 214 211 209 210 210 210 212 212 211 214 220 218 211 207 207 208 210 212 213 215 217 218 221 222 220 218 216 213 217 227 231 231 232 234 235 237 238 236 238 244 247 244 244 247 252 266 293 313 316 319 324 325 324 324 327 328 327 327 328 329 332 335 337 338 340 341 343
217 218 218 216 215 216 216 215 214 215 215 215 215 216 215 214 216 217 215 209 206 207 207 206 205 203 203 207 210 208 205 204 204 206 208 209 210 212 215 218 221 223 222 221 219 217 220 229 233 233 234 236 235 235 236 236 237 242 243 241 244 250 255 267 285 296 301 309 314 315 314 316 319 321 322 323 325 326 329 331 332 335 337 337 337
218 220 220 218 218 220 220 218 217 218 218 217 218 218 216 215 217 220 218 212 208 208 209 207 205 200 197 198 199 198 196 197 199 200 201 204 206 208 211 216 220 224 225 224 222 220 223 231 237 236 235 237 238 236 236 236 236 239 241 241 244 251 258 269 280 288 297 305 308 309 313 314 315 319 323 324 322 322 325 328 328 331 335 336 337
215 218 219 217 218 222 223 220 219 220 220 219 219 218 218 217 218 220 220 216 212 212 214 214 209 202 196 194 193 192 192 194 196 197 198 201 205 208 212 217 221 225 229 231 229 227 227 231 236 237 237 238 238 237 238 239 237 238 240 242 246 253 260 269 278 286 296 304 306 309 315 318 322 327 332 333 329 323 322 324 328 333 338 341 343
210 214 216 217 218 221 223 222 221 221 220 219 219 219 220 219 218 218 219 216 212 212 217 222 217 207 197 193 192 192 194 196 197 200 202 203 206 210 214 218 222 226 230 233 232 231 232 234 235 238 239 239 239 239 240 241 240 240 242 244 248 254 258 264 276 288 297 304 308 312 316 320 323 327 331 334 333 329 325 327 330 334 338 341 341
210 214 214 216 218 219 221 223 223 221 219 218 218 219 219 218 215 215 215 213 208 205 212 225 225 214 204 200 197 196 198 201 204 209 212 212 214 217 218 220 223 224 226 229 230 231 233 235 236 238 239 239 240 241 241 242 242 242 244 246 249 255 260 267 281 293 300 304 308 309 309 310 311 311 313 317 322 325 327 330 331 331 333 335 333
212 214 215 218 220 219 221 222 221 220 219 217 217 218 217 213 210 209 209 209 206 200 203 219 227 220 212 209 206 203 204 209 213 218 223 225 227 229 230 231 232 229 228 229 230 232 235 235 235 238 240 240 241 241 242 244 245 244 246 249 252 258 265 273 282 290 294 297 300 300 301 304 305 307 310 313 316 319 322 325 326 327 328 329 328
213 210 211 216 219 220 221 222 220 219 219 218 218 218 214 208 206 205 204 206 205 201 200 210 217 216 215 216 214 210 212 217 222 229 235 238 239 240 240 240 239 236 234 233 232 233 236 237 237 240 243 243 245 245 245 247 248 248 249 251 254 259 266 273 281 288 293 297 299 300 301 303 304 306 309 311 312 315 318 321 323 324 323 323 323
213 208 208 213 217 219 220 220 219 219 218 217 218 217 212 206 204 203 202 204 205 202 201 205 206 208 213 219 218 213 216 225 234 241 245 247 248 248 246 243 239 236 235 234 234 235 238 240 241 243 245 246 247 248 248 250 252 253 252 253 255 261 268 276 284 292 297 299 300 302 303 304 303 304 306 308 310 314 316 318 317 316 315 316 318
215 211 210 212 215 216 217 217 217 216 215 216 217 215 210 206 203 201 201 203 203 201 201 203 203 205 211 216 216 215 220 228 235 241 246 249 249 248 244 239 235 232 231 231 232 234 238 240 241 243 246 249 251 253 256 258 257 256 255 254 256 262 271 279 287 294 298 300 300 300 302 303 302 302 303 305 307 309 310 310 310 311 312 314 315
212 212 211 212 214 214 213 214 216 216 214 214 213 210 208 207 206 205 204 205 205 204 203 203 203 204 208 211 213 215 219 224 229 237 245 249 250 247 241 234 229 227 227 227 227 230 235 240 243 246 250 255 260 262 264 263 260 257 255 255 258 265 275 283 290 295 299 300 298 297 298 299 300 300 301 301 302 303 305 306 308 310 311 313 313
204 208 209 211 213 211 208 209 215 216 213 211 210 209 209 209 209 209 209 209 209 208 205 204 205 207 209 210 212 214 216 220 229 240 248 251 250 246 239 231 224 220 220 220 222 228 235 241 247 251 256 261 264 266 265 263 260 257 255 257 263 271 279 286 290 294 297 298 297 295 293 293 293 295 296 298 299 302 304 307 308 310 311 312 313
200 205 206 206 208 207 206 207 211 212 210 208 209 209 210 211 212 212 212 211 208 205 204 204 207 209 210 211 214 216 218 223 233 243 249 250 245 237 227 220 215 213 215 221 228 235 242 248 252 256 260 261 263 265 265 265 263 260 259 262 268 274 281 287 290 292 293 295 296 294 291 290 290 292 293 296 299 302 305 307 308 309 311 312 313
195 199 200 201 202 203 205 207 207 204 203 205 208 208 209 210 211 211 209 206 203 202 204 207 208 208 209 212 216 220 225 233 240 244 244 239 229 220 215 215 217 221 228 236 242 247 251 254 256 258 259 260 262 265 267 268 268 266 266 268 272 277 282 287 289 290 292 293 294 293 292 291 292 294 296 299 301 304 306 308 309 310 312 313 314
189 192 194 195 196 199 204 206 203 200 200 202 206 208 208 207 205 204 202 201 199 200 202 204 204 204 208 214 221 227 233 236 234 228 219 211 210 212 216 222 228 233 238 243 248 253 256 257 256 256 256 257 260 264 267 269 271 271 271 272 274 278 281 284 286 288 291 292 293 293 294 296 298 300 302 304 306 307 308 309 310 311 312 312 313
181 183 184 186 190 194 199 200 200 201 203 204 205 204 202 199 198 197 196 196 197 199 201 202 204 208 214 222 229 232 229 222 213 206 204 206 212 218 222 226 231 237 242 247 251 254 255 255 254 253 254 257 261 265 268 270 271 272 273 273 275 277 280 282 285 288 290 292 294 297 299 302 304 306 306 307 308 309 310 310 311 312 312 312 313
172 174 178 183 190 197 200 200 201 202 203 204 203 200 197 196 196 196 195 197 199 201 204 208 213 218 224 227 226 219 210 204 203 206 209 211 214 218 222 227 232 239 245 249 251 251 252 253 254 255 257 261 264 266 268 270 271 273 274 275 276 278 280 283 285 289 292 295 298 302 304 305 306 308 308 309 309 310 311 311 312 312 312 313 314
169 174 181 188 193 196 196 193 191 193 195 197 197 196 194 193 193 191 191 194 197 202 209 215 218 219 218 212 204 199 200 204 208 211 212 213 217 223 229 235 239 242 244 248 251 254 257 259 259 259 261 263 264 266 269 271 273 275 276 277 278 280 282 285 288 292 297 300 302 304 305 306 307 308 309 310 310 311 312 312 312 312 313 315 316
172 176 181 183 183 183 183 181 183 187 190 189 186 183 181 179 178 179 182 189 197 205 210 210 205 199 193 191 193 199 205 209 210 212 216 220 226 232 238 242 244 246 249 253 257 260 261 261 260 261 262 264 267 270 272 273 274 275 276 278 281 283 287 291 296 299 302 304 305 306 307 308 309 310 311 311 311 312 312 312 313 314 316 317 317